, SD

(GMT )
Rapid City

Weather History for KRAP - February, 2014

Change the Weather History Date:

Tuesday, February 11, 2014

  Actual Average Record
Temperature  
Mean Temperature 18 °F 26 °F  
Max Temperature 37 °F 39 °F 68 °F (1990)
Min Temperature -1 °F 14 °F -15 °F (1944)
Degree Days  
Heating Degree Days 47 39  
Month to date heating degree days 657 430  
Since 1 July heating degree days 5002 4586  
Cooling Degree Days 0 0  
Month to date cooling degree days 0 0  
Year to date cooling degree days 0 0  
Moisture  
Dew Point 18 °F    
Average Humidity 78    
Maximum Humidity 95    
Minimum Humidity 61    
Precipitation  
Precipitation 0.00 in 0.01 in 0.24 in (2008)
Month to date precipitation 0.14 0.12  
Year to date precipitation 0.34 0.42  
Snow  
Snow 0.00 in 0.20 in 2.40 in (2008)
Month to date snowfall 2.8 1.8  
Since 1 July snowfall 39.4 19.4  
Snow Depth 3.00 in    
Sea Level Pressure  
Sea Level Pressure 30.02 in    
Wind  
Wind Speed 9 mph (NNE)    
Max Wind Speed 43 mph    
Max Gust Speed 52 mph    
Visibility 10 miles    
Events      
T = Trace of Precipitation, MM = Missing Value Source: NWS Daily Summary

Daily Weather History Graph

Daily Weather History Graph

Search for Another Location

Airport or City:

Astronomy

Feb. 11, 2014 Rise Set
Actual Time 6:57 AM MST 5:16 PM MST
Civil Twilight 6:27 AM MST 5:46 PM MST
Nautical Twilight 5:53 AM MST 6:20 PM MST
Astronomical Twilight 5:19 AM MST 6:53 PM MST
Moon 2:36 PM MST (2/11) 4:38 AM MST (2/11)
Length of Visible Light 11h 19m
Length of Day
10h 19m
Waxing Gibbous, 91% of the Moon is Illuminated
Feb 11
Waxing Gibbous
Feb 14
Full
Feb 22
Last Quarter
Mar 1
New
Mar 8
First Quarter

Hourly Weather History & Observations

Time (MST) Temp. Windchill Dew Point Humidity Pressure Visibility Wind Dir Wind Speed Gust Speed Precip Events Conditions
12:52 AM 1.0 °F - -2.0 °F 87% 30.22 in 10.0 mi Calm Calm - N/A   Clear
1:52 AM 1.9 °F - -0.9 °F 88% 30.20 in 10.0 mi Calm Calm - N/A   Clear
2:52 AM -0.0 °F - -2.0 °F 91% 30.17 in 10.0 mi Calm Calm - N/A   Clear
3:52 AM 1.9 °F - -2.0 °F 83% 30.14 in 10.0 mi Calm Calm - N/A   Clear
4:52 AM 5.0 °F - 1.9 °F 87% 30.12 in 10.0 mi Calm Calm - N/A   Partly Cloudy
5:52 AM 10.0 °F - 6.1 °F 84% 30.08 in 10.0 mi Calm Calm - N/A   Overcast
6:52 AM 12.9 °F - 9.0 °F 84% 30.06 in 10.0 mi Calm Calm - N/A   Overcast
7:52 AM 15.1 °F - 12.0 °F 88% 30.04 in 10.0 mi Calm Calm - N/A   Partly Cloudy
8:52 AM 21.9 °F - 18.0 °F 85% 30.02 in 10.0 mi Calm Calm - N/A   Clear
9:52 AM 26.1 °F - 19.0 °F 75% 30.00 in 10.0 mi Calm Calm - N/A   Partly Cloudy
10:52 AM 26.1 °F - 19.0 °F 75% 29.99 in 10.0 mi Calm Calm - N/A   Partly Cloudy
11:52 AM 33.1 °F 28.7 °F 21.9 °F 64% 29.96 in 10.0 mi ESE 4.6 mph - N/A   Clear
12:52 PM 34.0 °F 31.0 °F 24.1 °F 67% 29.94 in 10.0 mi ESE 3.5 mph - N/A   Partly Cloudy
1:52 PM 35.1 °F 32.2 °F 26.1 °F 70% 29.91 in 10.0 mi SE 3.5 mph - N/A   Clear
2:52 PM 35.1 °F 32.2 °F 26.1 °F 70% 29.90 in 10.0 mi East 3.5 mph - N/A   Clear
3:52 PM 36.0 °F 31.1 °F 28.0 °F 73% 29.90 in 10.0 mi East 5.8 mph - N/A   Clear
4:52 PM 35.1 °F - 28.0 °F 76% 29.90 in 10.0 mi Calm Calm - N/A   Overcast
5:52 PM 33.1 °F 30.0 °F 27.0 °F 78% 29.90 in 10.0 mi East 3.5 mph - N/A   Scattered Clouds
6:34 PM 35.6 °F 21.7 °F 28.4 °F 75% 29.85 in 10.0 mi NNW 34.5 mph 47.2 mph N/A   Squalls
6:47 PM 35.6 °F 21.3 °F 28.4 °F 75% 29.86 in 10.0 mi NNW 36.8 mph 51.8 mph N/A   Mostly Cloudy
6:52 PM 35.1 °F 20.6 °F 28.9 °F 78% 29.99 in 10.0 mi NNW 36.8 mph 43.7 mph N/A   Mostly Cloudy
7:52 PM 35.1 °F 23.5 °F 27.0 °F 72% 30.00 in 10.0 mi NNW 21.9 mph 27.6 mph N/A   Mostly Cloudy
8:52 PM 33.1 °F 17.3 °F 27.0 °F 78% 30.03 in 10.0 mi NNW 40.3 mph 48.3 mph N/A   Scattered Clouds
9:52 PM 30.9 °F 15.5 °F 26.1 °F 82% 30.06 in 10.0 mi NNW 33.4 mph 39.1 mph N/A   Partly Cloudy
10:13 PM 30.2 °F 15.9 °F 24.8 °F 80% 29.98 in 10.0 mi NNW 26.5 mph 35.7 mph N/A   Mostly Cloudy
10:52 PM 28.0 °F 16.1 °F 24.1 °F 85% 30.13 in 10.0 mi North 16.1 mph - N/A   Partly Cloudy
11:52 PM 28.9 °F 16.9 °F 24.1 °F 82% 30.14 in 10.0 mi North 17.3 mph 24.2 mph N/A   Overcast